sat.trackr.live / text

‹ back to catalog

STARLINK-1494

NORAD 45760 · 2020-038AG

PAYLOAD ACTIVE UNKNOWN

§ Identity

Operator
Country
US
Launch date
2020-06-13
Launch site
AFETR
Launch vehicle
Mass (kg)
RCS (m²)

Purposes: comms

External: N2YO · Heavens-Above · Gunter

§ Orbital elements

Epoch: 2026-06-14T20:04:43.870368Z

Period
88.08 min
Inclination
53.0260°
Eccentricity
0.0010956
Mean motion
16.34952431 rev/d
Perigee alt
172.1 km
Apogee alt
186.4 km
Semi-major
6,557.4 km
B*
5.0098e-4
RAAN
17.2308°
Arg perigee
260.8267°
Mean anomaly
99.1538°
Rev number
33,284

§ Raw data

STARLINK-14941 45760U 20038AG  26165.83661887  .03947475  12206-4  50098-3 0  99912 45760  53.0260  17.2308 0010956 260.8267  99.1538 16.34952431332846

JSON: /api/v1/satellites/45760 · /tle

For live sub-satellite position, see the globe view (requires WebGL).

§ Visibility from observer

Set your observer location to see the next 7 days of passes ≥ 10°. The values pass through the URL so the page stays shareable.

No JS? Fill the form by hand. The geolocation button needs JavaScript.